FW1302 Weather Reports


Display with metric or nautical units.
time (UTC)temp
F
wind
direction
speed
MPH
gust
MPH
rain 1hr
in
rain 24hr
in
rain mn
in
humidity
%
barometer
mb
20260903082929 56 185 0.0 4.0 0.00 0.01 0.00 88 1020.6
20260903081029 57 225 6.0 10.0 0.00 0.01 0.00 90 1020.5
20260903080029 56 225 8.0 14.0 0.00 0.01 0.00 92 1020.6
20260903075030 56 219 4.0 7.0 0.00 0.01 0.00 93 1020.6
20260903074129 56 226 8.0 11.0 0.00 0.01 0.00 93 1020.7
20260903073129 55 202 3.0 4.0 0.00 0.01 0.00 94 1020.6
20260903072130 55 180 0.0 0.0 0.00 0.01 0.00 94 1020.3
20260903071128 55 202 2.0 2.0 0.00 0.01 0.00 94 1020.3
20260903070129 55 360 0.0 0.0 0.00 0.01 0.00 94 1020.3
20260903064212 55 180 0.0 0.0 0.00 0.01 0.01 95 1020.4
20260903063214 55 180 0.0 0.0 0.00 0.01 0.01 94 1020.3
20260903062211 55 157 0.0 1.0 0.00 0.01 0.01 93 1020.3
20260903061211 55 157 0.0 0.0 0.00 0.01 0.01 93 1020.3
20260903060211 56 157 1.0 2.0 0.00 0.01 0.01 93 1020.5
20260903055213 56 157 3.0 4.0 0.00 0.01 0.01 92 1020.3
20260903054312 57 180 0.0 1.0 0.00 0.01 0.01 92 1020.3
20260903052314 57 246 2.0 4.0 0.00 0.01 0.01 91 1020.3
20260903051411 57 225 3.0 4.0 0.00 0.01 0.01 91 1020.1
20260903051312 57 225 2.0 4.0 0.00 0.01 0.01 91 1020.1
20260903050313 57 224 2.0 3.0 0.00 0.01 0.01 93 1020.1
20260903045412 58 225 2.0 3.0 0.00 0.01 0.01 92 1019.9
20260903044511 58 232 5.0 7.0 0.00 0.01 0.01 92 1019.9
20260903043512 58 225 5.0 7.0 0.00 0.01 0.01 92 1019.9
20260903042511 58 228 8.0 10.0 0.00 0.01 0.01 93 1019.8
20260903041514 58 221 5.0 7.0 0.00 0.01 0.01 93 1019.5
20260903040513 58 225 5.0 7.0 0.00 0.01 0.01 93 1019.5
20260903035512 58 225 6.0 7.0 0.00 0.01 0.01 93 1019.4
20260903034511 58 225 5.0 7.0 0.00 0.01 0.01 93 1019.2
20260903032513 58 223 4.0 6.0 0.00 0.01 0.01 93 1019.2
20260903032411 58 225 4.0 6.0 0.00 0.01 0.01 93 1019.2
20260903031413 58 225 4.0 4.0 0.00 0.01 0.01 93 1019.3
20260903030512 58 225 4.0 6.0 0.00 0.01 0.01 93 1019.2
20260903025513 58 225 6.0 7.0 0.00 0.01 0.01 94 1019.2
20260903024611 58 225 4.0 5.0 0.00 0.01 0.01 93 1019.1
20260903023613 58 207 7.0 11.0 0.00 0.01 0.01 92 1019.1
20260903022614 59 224 7.0 10.0 0.00 0.01 0.01 93 1019.1
20260903021711 59 223 7.0 11.0 0.01 0.01 0.01 93 1018.9
20260903021613 59 225 8.0 12.0 0.01 0.01 0.01 92 1018.9
20260903020614 59 225 4.0 7.0 0.01 0.01 0.01 93 1019.0
20260903015613 59 225 10.0 13.0 0.01 0.01 0.01 92 1018.8
20260903014613 59 228 8.0 10.0 0.01 0.01 0.01 93 1018.5
20260903013612 59 225 7.0 10.0 0.01 0.01 0.01 94 1018.5
20260903012712 59 231 11.0 14.0 0.01 0.01 0.01 94 1018.5
20260903011710 59 226 9.0 13.0 0.00 0.00 0.00 93 1018.5
20260903010712 59 215 4.0 6.0 0.00 0.00 0.00 93 1018.4
20260903005712 59 200 2.0 4.0 0.00 0.00 0.00 94 1018.1
20260903004712 59 180 0.0 0.0 0.00 0.00 0.00 92 1018.2
20260903003711 59 197 0.0 0.0 0.00 0.00 0.00 93 1018.1
20260903002713 60 202 0.0 0.0 0.00 0.00 0.00 92 1018.3
20260903001712 59 202 0.0 0.0 0.00 0.00 0.00 92 1018.2
20260903000713 59 202 0.0 0.0 0.00 0.00 0.00 93 1018.1
20260902235713 59 202 0.0 0.0 0.00 0.00 0.00 92 1018.2
20260902234712 59 180 0.0 0.0 0.00 0.00 0.00 91 1018.0
20260902233712 59 180 0.0 0.0 0.00 0.00 0.00 92 1018.3
20260902230714 60 180 0.0 0.0 0.00 0.00 0.00 92 1018.0
20260902224713 60 202 0.0 0.0 0.00 0.00 0.00 91 1018.3
20260902223811 60 202 0.0 0.0 0.00 0.00 0.00 90 1018.0
20260902221813 60 202 0.0 0.0 0.00 0.00 0.00 92 1018.2
20260902215914 60 204 0.0 3.0 0.00 0.00 0.00 91 1018.4
20260902213911 60 45 1.0 2.0 0.00 0.00 0.00 90 1018.2
20260902212913 60 45 0.0 0.0 0.00 0.00 0.00 89 1018.0
20260902211011 60 45 0.0 0.0 0.00 0.00 0.00 89 1017.8
20260902210913 60 45 0.0 0.0 0.00 0.00 0.00 89 1017.8
20260902210012 60 45 0.0 0.0 0.00 0.00 0.00 90 1017.8
20260902204013 60 45 3.0 3.0 0.00 0.00 0.00 89 1017.7
20260902203014 60 49 4.0 4.0 0.00 0.00 0.00 89 1017.7
20260902202112 60 135 0.0 0.0 0.00 0.00 0.00 88 1017.9
20260902201112 60 135 0.0 0.0 0.00 0.00 0.00 88 1018.0
20260902200112 60 135 1.0 3.0 0.00 0.00 0.00 87 1018.1
20260902195112 61 184 0.0 4.0 0.00 0.00 0.00 86 1018.4
20260902194113 61 207 2.0 5.0 0.00 0.00 0.00 85 1018.5
20260902193112 61 225 6.0 8.0 0.00 0.00 0.00 83 1018.5
20260902192211 62 220 6.0 9.0 0.00 0.00 0.00 82 1018.4
20260902191213 62 225 7.0 8.0 0.00 0.00 0.00 80 1018.4
20260902190214 63 231 4.0 6.0 0.00 0.00 0.00 78 1018.2
20260902185212 63 225 4.0 6.0 0.00 0.00 0.00 76 1018.2
20260902184214 63 270 6.0 7.0 0.00 0.00 0.00 73 1017.9
20260902183210 64 247 5.0 7.0 0.00 0.00 0.00 71 1018.0
20260902182212 65 270 4.0 5.0 0.00 0.00 0.00 66 1018.0
20260902175311 64 247 1.0 2.0 0.00 0.00 0.00 66 1018.0
20260902175211 64 247 1.0 2.0 0.00 0.00 0.00 66 1018.0
20260902174213 65 292 3.0 3.0 0.00 0.00 0.00 66 1017.9
20260902172213 64 22 2.0 3.0 0.00 0.00 0.00 67 1017.9
20260902171212 64 22 3.0 4.0 0.00 0.00 0.00 68 1017.9
20260902171110 64 22 2.0 3.0 0.00 0.00 0.00 68 1017.9
20260902170112 64 22 4.0 5.0 0.00 0.00 0.00 68 1018.0
20260902164211 64 22 4.0 5.0 0.00 0.00 0.00 70 1018.1
20260902163213 63 45 4.0 5.0 0.00 0.00 0.00 70 1018.2
20260902162213 64 45 5.0 6.0 0.00 0.00 0.00 70 1018.3
20260902160310 64 45 6.0 7.0 0.00 0.00 0.00 68 1018.5
20260902155313 64 45 5.0 6.0 0.00 0.00 0.00 68 1018.7
20260902154311 63 45 3.0 5.0 0.00 0.00 0.00 71 1018.9
20260902152313 62 45 2.0 4.0 0.00 0.00 0.00 74 1019.2
20260902150412 61 112 0.0 0.0 0.00 0.00 0.00 76 1019.3
20260902145415 61 112 0.0 0.0 0.00 0.00 0.00 76 1019.4
20260902144511 61 135 0.0 0.0 0.00 0.00 0.00 77 1019.4
20260902143512 61 135 0.0 0.0 0.00 0.00 0.00 76 1019.6
20260902143413 61 135 0.0 0.0 0.00 0.00 0.00 76 1019.5
20260902142512 61 135 0.0 0.0 0.00 0.00 0.00 74 1019.9
20260902140612 60 135 0.0 0.0 0.00 0.00 0.00 77 1020.1
20260902140514 60 135 0.0 0.0 0.00 0.00 0.00 77 1020.1
20260902135611 60 135 0.0 0.0 0.00 0.00 0.00 76 1020.1
20260902134612 60 135 0.0 1.0 0.00 0.00 0.00 78 1020.3
20260902133611 60 135 2.0 4.0 0.00 0.00 0.00 79 1020.3
20260902132711 60 180 0.0 0.0 0.00 0.00 0.00 79 1020.4
20260902131711 60 247 0.0 0.0 0.00 0.00 0.00 78 1020.3
20260902125712 61 241 8.0 11.0 0.00 0.00 0.00 75 1020.5
20260902124713 62 243 9.0 12.0 0.00 0.00 0.00 71 1020.5
20260902123714 63 265 12.0 18.0 0.00 0.00 0.00 68 1020.4
20260902122712 63 257 6.0 8.0 0.00 0.00 0.00 68 1020.5
20260902121712 63 232 4.0 6.0 0.00 0.00 0.00 68 1020.3
20260902115713 63 253 4.0 7.0 0.00 0.00 0.00 71 1020.5
20260902114715 62 262 2.0 3.0 0.00 0.00 0.00 70 1020.6
20260902113711 63 210 1.0 3.0 0.00 0.00 0.00 70 1020.8
20260902112712 63 247 4.0 5.0 0.00 0.00 0.00 70 1020.6
20260902110711 63 260 5.0 6.0 0.00 0.00 0.00 69 1020.6
20260902105712 63 225 4.0 6.0 0.00 0.00 0.00 68 1020.8
20260902104712 63 248 6.0 7.0 0.00 0.00 0.00 68 1020.8
20260902103715 63 227 5.0 7.0 0.00 0.00 0.00 69 1020.9
20260902101713 63 255 6.0 9.0 0.00 0.00 0.00 68 1021.2
20260902100810 64 225 5.0 6.0 0.00 0.00 0.00 67 1021.3
20260902095813 64 242 9.0 12.0 0.00 0.00 0.00 67 1021.4
20260902094814 64 223 4.0 7.0 0.00 0.00 0.00 68 1021.4
20260902092910 64 229 5.0 8.0 0.00 0.00 0.00 70 1021.4
20260902091913 64 238 12.0 16.0 0.00 0.00 0.00 70 1021.2
20260902090813 64 226 6.0 9.0 0.00 0.00 0.00 69 1021.4
20260902085814 64 225 5.0 7.0 0.00 0.00 0.00 70 1021.5
20260902084811 64 240 9.0 13.0 0.00 0.00 0.00 71 1021.3